VTAFC VA1M-VAJJ

Flight info

Callsign VTAFC
Flight time 1h 24m
Altitude 6000
Route PPN DCT NMB DCT BBB
Aircraft C172/L-SDE2E3FGHIRWXY/LB1

Departure

Time 2026-04-17 22:13
Airport Karad Airport (VA1M)

Arrival

Time 2026-04-17 23:38
Airport Juhu Aerodrome (VAJJ)
Time Latitude Longitude Altitude Speed Heading
2026-04-17 22:05 17.28617 74.15783 1916 ft 0 kts 94°
2026-04-17 22:10 17.28617 74.15784 1916 ft 2 kts 98°
2026-04-17 22:10 17.28586 74.15739 1916 ft 22 kts 268°
2026-04-17 22:10 17.28608 74.15506 1912 ft 39 kts 275°
2026-04-17 22:10 17.28632 74.15269 1909 ft 26 kts 277°
2026-04-17 22:11 17.28660 74.15194 1908 ft 0 kts 242°
2026-04-17 22:11 17.28646 74.15189 1908 ft 6 kts 173°
2026-04-17 22:11 17.28635 74.15208 1908 ft 0 kts 96°
2026-04-17 22:11 17.28632 74.15248 1909 ft 24 kts 94°
2026-04-17 22:12 17.28595 74.15581 1913 ft 63 kts 91°
2026-04-17 22:12 17.28540 74.16035 2036 ft 65 kts 81°
2026-04-17 22:12 17.28533 74.16507 2175 ft 64 kts 79°
2026-04-17 22:12 17.28562 74.17008 2297 ft 69 kts 75°
2026-04-17 22:13 17.28212 74.17376 2342 ft 99 kts 175°
2026-04-17 22:13 17.27557 74.17277 2488 ft 100 kts 212°
2026-04-17 22:13 17.27315 74.16648 2662 ft 87 kts 279°
2026-04-17 22:13 17.27376 74.15987 2732 ft 95 kts 281°
2026-04-17 22:14 17.27417 74.15289 2839 ft 97 kts 277°
2026-04-17 22:14 17.27426 74.14570 2918 ft 103 kts 274°
2026-04-17 22:14 17.27453 74.13800 2965 ft 106 kts 282°
2026-04-17 22:14 17.27542 74.13011 2981 ft 112 kts 282°
2026-04-17 22:15 17.27642 74.12170 2966 ft 119 kts 279°
2026-04-17 22:15 17.27735 74.11295 2905 ft 122 kts 283°
2026-04-17 22:15 17.28033 74.10523 2877 ft 110 kts 332°
2026-04-17 22:15 17.28755 74.10470 2875 ft 102 kts
2026-04-17 22:16 17.29101 74.10884 2716 ft 89 kts 100°
2026-04-17 22:16 17.28950 74.11389 2683 ft 63 kts 91°
2026-04-17 22:16 17.28898 74.11852 2588 ft 64 kts 81°
2026-04-17 22:16 17.28881 74.12320 2494 ft 64 kts 85°
2026-04-17 22:17 17.28840 74.12788 2375 ft 64 kts 85°
2026-04-17 22:17 17.28808 74.13246 2286 ft 65 kts 83°
2026-04-17 22:17 17.28765 74.13714 2202 ft 64 kts 86°
2026-04-17 22:17 17.28725 74.14172 2118 ft 64 kts 85°
2026-04-17 22:18 17.28685 74.14634 2035 ft 65 kts 86°
2026-04-17 22:18 17.28643 74.15111 1948 ft 65 kts 88°
2026-04-17 22:18 17.28603 74.15546 1913 ft 52 kts 93°
2026-04-17 22:18 17.28543 74.16021 1989 ft 67 kts 90°
2026-04-17 22:19 17.28448 74.16502 2125 ft 68 kts 92°
2026-04-17 22:19 17.28329 74.17003 2233 ft 74 kts 94°
2026-04-17 22:19 17.28107 74.17471 2375 ft 85 kts 147°
2026-04-17 22:19 17.27473 74.17375 2481 ft 94 kts 185°
2026-04-17 22:20 17.26986 74.16949 2480 ft 106 kts 271°
2026-04-17 22:20 17.27006 74.16296 2746 ft 86 kts 284°
2026-04-17 22:20 17.27289 74.15861 2846 ft 73 kts 358°
2026-04-17 22:20 17.27755 74.15845 3061 ft 61 kts 359°
2026-04-17 22:21 17.28188 74.15811 3182 ft 65 kts
2026-04-17 22:21 17.28609 74.15771 3366 ft 58 kts
2026-04-17 22:21 17.29018 74.15756 3489 ft 61 kts
2026-04-17 22:21 17.29448 74.15743 3627 ft 61 kts 357°
2026-04-17 22:22 17.29749 74.16010 3719 ft 68 kts 73°
2026-04-17 22:22 17.29481 74.16460 3856 ft 83 kts 144°
2026-04-17 22:22 17.28857 74.16472 3971 ft 92 kts 182°
2026-04-17 22:22 17.28228 74.16366 4128 ft 90 kts 181°
2026-04-17 22:23 17.27629 74.16283 4292 ft 86 kts 185°
2026-04-17 22:23 17.27037 74.16116 4398 ft 91 kts 196°
2026-04-17 22:23 17.26671 74.15617 4496 ft 89 kts 274°
2026-04-17 22:23 17.26974 74.15164 4603 ft 73 kts 352°
2026-04-17 22:24 17.27492 74.15192 4707 ft 73 kts
2026-04-17 22:24 17.27998 74.15138 4835 ft 77 kts 343°
2026-04-17 22:24 17.28515 74.14947 4942 ft 79 kts 348°
2026-04-17 22:24 17.29044 74.14770 5057 ft 80 kts 347°
2026-04-17 22:25 17.29583 74.14592 5176 ft 82 kts 348°
2026-04-17 22:25 17.30121 74.14414 5330 ft 80 kts 347°
2026-04-17 22:25 17.30645 74.14238 5488 ft 78 kts 347°
2026-04-17 22:25 17.31160 74.14064 5645 ft 77 kts 347°
2026-04-17 22:26 17.31676 74.13889 5788 ft 78 kts 347°
2026-04-17 22:26 17.32200 74.13714 5925 ft 79 kts 347°
2026-04-17 22:26 17.32729 74.13536 6061 ft 80 kts 347°
2026-04-17 22:26 17.33321 74.13345 6058 ft 97 kts 347°
2026-04-17 22:27 17.34009 74.13128 6051 ft 106 kts 347°
2026-04-17 22:27 17.34737 74.12901 6047 ft 110 kts 347°
2026-04-17 22:27 17.35486 74.12669 6047 ft 113 kts 348°
2026-04-17 22:27 17.36246 74.12434 6044 ft 112 kts 347°
2026-04-17 22:28 17.36988 74.12206 6043 ft 110 kts 347°
2026-04-17 22:28 17.37709 74.11985 6040 ft 105 kts 348°
2026-04-17 22:28 17.38404 74.11771 6041 ft 102 kts 348°
2026-04-17 22:28 17.39083 74.11562 6041 ft 101 kts 348°
2026-04-17 22:29 17.39756 74.11353 6124 ft 99 kts 347°
2026-04-17 22:29 17.40409 74.11146 6234 ft 97 kts 347°
2026-04-17 22:29 17.41058 74.10941 6347 ft 96 kts 347°
2026-04-17 22:29 17.41694 74.10738 6461 ft 95 kts 347°
2026-04-17 22:30 17.42325 74.10538 6574 ft 94 kts 347°
2026-04-17 22:30 17.42953 74.10339 6689 ft 93 kts 347°
2026-04-17 22:30 17.43575 74.10141 6800 ft 93 kts 347°
2026-04-17 22:30 17.44200 74.09942 6914 ft 93 kts 347°
2026-04-17 22:31 17.44826 74.09744 7027 ft 93 kts 347°
2026-04-17 22:31 17.45441 74.09547 7141 ft 93 kts 348°
2026-04-17 22:31 17.46063 74.09350 7252 ft 93 kts 348°
2026-04-17 22:31 17.46684 74.09153 7365 ft 93 kts 347°
2026-04-17 22:32 17.47308 74.08957 7477 ft 93 kts 347°
2026-04-17 22:32 17.47932 74.08759 7591 ft 93 kts 347°
2026-04-17 22:32 17.48547 74.08564 7701 ft 93 kts 347°
2026-04-17 22:32 17.49169 74.08366 7814 ft 93 kts 347°
2026-04-17 22:33 17.49790 74.08170 7927 ft 92 kts 347°
2026-04-17 22:33 17.50413 74.07973 8040 ft 92 kts 346°
2026-04-17 22:33 17.51051 74.07773 8072 ft 101 kts 347°
2026-04-17 22:33 17.51755 74.07556 8066 ft 109 kts 347°
2026-04-17 22:34 17.52507 74.07327 8062 ft 113 kts 348°
2026-04-17 22:34 17.53266 74.07096 8060 ft 115 kts 347°
2026-04-17 22:34 17.54043 74.06862 8057 ft 116 kts 347°
2026-04-17 22:34 17.54836 74.06623 8056 ft 117 kts 347°
2026-04-17 22:35 17.55619 74.06387 8058 ft 117 kts 347°
2026-04-17 22:35 17.56405 74.06151 8060 ft 118 kts 347°
2026-04-17 22:35 17.57202 74.05911 8061 ft 118 kts 347°
2026-04-17 22:35 17.57984 74.05675 8067 ft 117 kts 347°
2026-04-17 22:36 17.58776 74.05437 8072 ft 117 kts 347°
2026-04-17 22:36 17.59558 74.05203 8076 ft 117 kts 347°
2026-04-17 22:36 17.60351 74.04965 8077 ft 117 kts 347°
2026-04-17 22:36 17.61137 74.04729 8078 ft 117 kts 347°
2026-04-17 22:37 17.61918 74.04494 8078 ft 117 kts 347°
2026-04-17 22:37 17.62710 74.04256 8079 ft 117 kts 348°
2026-04-17 22:37 17.63493 74.04022 8079 ft 117 kts 348°
2026-04-17 22:37 17.64277 74.03788 8083 ft 117 kts 348°
2026-04-17 22:38 17.65068 74.03552 8084 ft 118 kts 348°
2026-04-17 22:38 17.65873 74.03313 8074 ft 118 kts 347°
2026-04-17 22:38 17.66667 74.03076 8075 ft 118 kts 347°
2026-04-17 22:38 17.67454 74.02842 8079 ft 118 kts 347°
2026-04-17 22:39 17.68247 74.02605 8078 ft 118 kts 347°
2026-04-17 22:39 17.69052 74.02367 8076 ft 119 kts 347°
2026-04-17 22:39 17.70641 74.01894 8074 ft 118 kts 347°
2026-04-17 22:40 17.71434 74.01659 8074 ft 118 kts 347°
2026-04-17 22:40 17.72231 74.01422 8075 ft 118 kts 347°
2026-04-17 22:40 17.73022 74.01187 8076 ft 118 kts 348°
2026-04-17 22:40 17.73815 74.00952 8076 ft 117 kts 348°
2026-04-17 22:41 17.74611 74.00716 8078 ft 117 kts 348°
2026-04-17 22:41 17.75393 74.00485 8077 ft 117 kts 348°
2026-04-17 22:41 17.76189 74.00250 8078 ft 117 kts 347°
2026-04-17 22:41 17.76978 74.00017 8080 ft 118 kts 347°
2026-04-17 22:42 17.77773 73.99784 8082 ft 118 kts 347°
2026-04-17 22:42 17.78565 73.99551 8079 ft 119 kts 347°
2026-04-17 22:42 17.79367 73.99314 8085 ft 118 kts 346°
2026-04-17 22:42 17.80160 73.99081 8088 ft 119 kts 347°
2026-04-17 22:43 17.80959 73.98846 8092 ft 118 kts 347°
2026-04-17 22:43 17.81764 73.98609 8099 ft 118 kts 346°
2026-04-17 22:43 17.82558 73.98376 8101 ft 119 kts 347°
2026-04-17 22:43 17.83359 73.98141 8102 ft 119 kts 347°
2026-04-17 22:44 17.84161 73.97906 8106 ft 119 kts 347°
2026-04-17 22:44 17.84964 73.97670 8102 ft 119 kts 347°
2026-04-17 22:44 17.85757 73.97439 8102 ft 119 kts 346°
2026-04-17 22:44 17.86571 73.97201 8103 ft 119 kts 347°
2026-04-17 22:45 17.87373 73.96966 8102 ft 119 kts 346°
2026-04-17 22:45 17.88174 73.96732 8102 ft 119 kts 347°
2026-04-17 22:45 17.88981 73.96497 8101 ft 119 kts 346°
2026-04-17 22:45 17.89783 73.96262 8104 ft 119 kts 347°
2026-04-17 22:46 17.90579 73.96031 8108 ft 119 kts 347°
2026-04-17 22:46 17.91377 73.95798 8110 ft 119 kts 347°
2026-04-17 22:46 17.92188 73.95562 8105 ft 119 kts 347°
2026-04-17 22:46 17.92992 73.95328 8103 ft 120 kts 347°
2026-04-17 22:47 17.93801 73.95094 8099 ft 120 kts 347°
2026-04-17 22:47 17.94611 73.94859 8093 ft 120 kts 347°
2026-04-17 22:47 17.95418 73.94626 8091 ft 120 kts 347°
2026-04-17 22:47 17.96231 73.94390 8091 ft 119 kts 347°
2026-04-17 22:48 17.97027 73.94159 8098 ft 119 kts 347°
2026-04-17 22:48 17.97828 73.93927 8094 ft 119 kts 347°
2026-04-17 22:48 17.98639 73.93693 8091 ft 119 kts 348°
2026-04-17 22:48 17.99440 73.93461 8090 ft 119 kts 348°
2026-04-17 22:49 18.00238 73.93230 8087 ft 119 kts 348°
2026-04-17 22:49 18.01037 73.93000 8087 ft 118 kts 347°
2026-04-17 22:49 18.01830 73.92772 8088 ft 118 kts 347°
2026-04-17 22:49 18.02626 73.92543 8090 ft 118 kts 347°
2026-04-17 22:50 18.03419 73.92315 8090 ft 118 kts 347°
2026-04-17 22:50 18.04219 73.92084 8093 ft 117 kts 347°
2026-04-17 22:50 18.04995 73.91805 8092 ft 120 kts 329°
2026-04-17 22:50 18.05468 73.91087 8099 ft 125 kts 292°
2026-04-17 22:51 18.05715 73.90205 8093 ft 126 kts 286°
2026-04-17 22:51 18.05938 73.89312 8091 ft 126 kts 286°
2026-04-17 22:51 18.06157 73.88418 8091 ft 127 kts 286°
2026-04-17 22:51 18.06379 73.87521 8084 ft 128 kts 287°
2026-04-17 22:52 18.06604 73.86610 8075 ft 128 kts 287°
2026-04-17 22:52 18.06828 73.85704 8067 ft 128 kts 288°
2026-04-17 22:52 18.06976 73.85104 8065 ft 128 kts 288°
2026-04-17 22:53 18.07502 73.82991 8061 ft 127 kts 287°
2026-04-17 22:53 18.07723 73.82101 8062 ft 127 kts 287°
2026-04-17 22:53 18.07950 73.81192 8057 ft 127 kts 287°
2026-04-17 22:53 18.08173 73.80296 8056 ft 127 kts 287°
2026-04-17 22:54 18.08395 73.79404 8066 ft 126 kts 287°
2026-04-17 22:54 18.08617 73.78516 8068 ft 126 kts 286°
2026-04-17 22:54 18.08840 73.77625 8074 ft 126 kts 286°
2026-04-17 22:54 18.09063 73.76723 8075 ft 126 kts 287°
2026-04-17 22:55 18.09285 73.75832 8077 ft 126 kts 287°
2026-04-17 22:55 18.09508 73.74940 8075 ft 127 kts 287°
2026-04-17 22:55 18.09733 73.74040 8071 ft 127 kts 287°
2026-04-17 22:55 18.09962 73.73132 8065 ft 127 kts 288°
2026-04-17 22:56 18.10187 73.72237 8063 ft 127 kts 287°
2026-04-17 22:56 18.10412 73.71342 8057 ft 127 kts 288°
2026-04-17 22:56 18.10639 73.70439 8052 ft 127 kts 287°
2026-04-17 22:56 18.10867 73.69538 8047 ft 127 kts 287°
2026-04-17 22:57 18.11096 73.68630 8045 ft 127 kts 287°
2026-04-17 22:57 18.11328 73.67731 8039 ft 127 kts 291°
2026-04-17 22:57 18.11724 73.66906 8037 ft 126 kts 302°
2026-04-17 22:57 18.12166 73.66106 8030 ft 126 kts 303°
2026-04-17 22:58 18.12610 73.65313 8027 ft 126 kts 303°
2026-04-17 22:58 18.13051 73.64524 8023 ft 125 kts 303°
2026-04-17 22:58 18.13492 73.63736 8022 ft 125 kts 303°
2026-04-17 22:58 18.13936 73.62942 8018 ft 125 kts 303°
2026-04-17 22:59 18.14381 73.62148 8018 ft 125 kts 303°
2026-04-17 22:59 18.14821 73.61362 8021 ft 125 kts 303°
2026-04-17 22:59 18.15264 73.60574 8016 ft 126 kts 303°
2026-04-17 22:59 18.15711 73.59778 8013 ft 125 kts 303°
2026-04-17 23:00 18.16153 73.58991 8011 ft 125 kts 303°
2026-04-17 23:00 18.16595 73.58204 8010 ft 125 kts 303°
2026-04-17 23:00 18.17036 73.57419 8010 ft 125 kts 302°
2026-04-17 23:00 18.17478 73.56633 8008 ft 125 kts 302°
2026-04-17 23:01 18.17925 73.55836 8007 ft 125 kts 303°
2026-04-17 23:01 18.18367 73.55051 8004 ft 125 kts 302°
2026-04-17 23:01 18.18811 73.54263 8006 ft 125 kts 303°
2026-04-17 23:01 18.19255 73.53471 7997 ft 126 kts 303°
2026-04-17 23:02 18.19705 73.52673 7997 ft 125 kts 303°
2026-04-17 23:02 18.20147 73.51887 7998 ft 125 kts 303°
2026-04-17 23:02 18.20590 73.51102 7999 ft 125 kts 303°
2026-04-17 23:02 18.21036 73.50322 8001 ft 124 kts 305°
2026-04-17 23:03 18.21541 73.49583 8006 ft 124 kts 311°
2026-04-17 23:03 18.22120 73.48916 7998 ft 123 kts 324°
2026-04-17 23:03 18.22839 73.48428 7998 ft 122 kts 332°
2026-04-17 23:03 18.23566 73.47962 7993 ft 122 kts 331°
2026-04-17 23:04 18.24297 73.47484 7991 ft 122 kts 330°
2026-04-17 23:04 18.25012 73.47006 7991 ft 122 kts 330°
2026-04-17 23:04 18.25729 73.46516 7995 ft 123 kts 329°
2026-04-17 23:04 18.26448 73.46024 7987 ft 123 kts 329°
2026-04-17 23:05 18.27172 73.45524 7972 ft 124 kts 328°
2026-04-17 23:05 18.27890 73.45026 7963 ft 123 kts 328°
2026-04-17 23:05 18.28602 73.44529 7960 ft 122 kts 329°
2026-04-17 23:05 18.29317 73.44028 7955 ft 122 kts 329°
2026-04-17 23:06 18.30016 73.43537 7959 ft 121 kts 328°
2026-04-17 23:06 18.30719 73.43044 7958 ft 121 kts 329°
2026-04-17 23:06 18.31422 73.42551 7960 ft 121 kts 329°
2026-04-17 23:06 18.32127 73.42054 7958 ft 121 kts 329°
2026-04-17 23:07 18.32827 73.41562 7957 ft 122 kts 328°
2026-04-17 23:07 18.33541 73.41060 7957 ft 122 kts 328°
2026-04-17 23:07 18.34251 73.40559 7950 ft 122 kts 328°
2026-04-17 23:07 18.34962 73.40060 7948 ft 122 kts 328°
2026-04-17 23:08 18.35676 73.39555 7946 ft 122 kts 328°
2026-04-17 23:08 18.36377 73.39059 7941 ft 122 kts 328°
2026-04-17 23:08 18.37085 73.38561 7953 ft 122 kts 329°
2026-04-17 23:08 18.37792 73.38063 7947 ft 123 kts 329°
2026-04-17 23:09 18.38512 73.37556 7945 ft 123 kts 329°
2026-04-17 23:09 18.39222 73.37057 7938 ft 123 kts 328°
2026-04-17 23:09 18.39934 73.36556 7936 ft 122 kts 328°
2026-04-17 23:09 18.40643 73.36053 7929 ft 123 kts 328°
2026-04-17 23:10 18.41354 73.35551 7929 ft 122 kts 329°
2026-04-17 23:10 18.42063 73.35052 7933 ft 122 kts 328°
2026-04-17 23:10 18.42775 73.34551 7919 ft 123 kts 328°
2026-04-17 23:10 18.43479 73.34054 7921 ft 122 kts 328°
2026-04-17 23:11 18.44186 73.33554 7925 ft 122 kts 328°
2026-04-17 23:11 18.44905 73.33048 7923 ft 123 kts 327°
2026-04-17 23:11 18.45618 73.32546 7920 ft 123 kts 327°
2026-04-17 23:11 18.46326 73.32044 7914 ft 122 kts 328°
2026-04-17 23:12 18.47035 73.31544 7925 ft 122 kts 327°
2026-04-17 23:12 18.47748 73.31039 7917 ft 123 kts 327°
2026-04-17 23:12 18.48462 73.30536 7926 ft 123 kts 327°
2026-04-17 23:12 18.49168 73.30036 7918 ft 124 kts 328°
2026-04-17 23:13 18.49886 73.29530 7916 ft 123 kts 328°
2026-04-17 23:13 18.50602 73.29024 7916 ft 124 kts 327°
2026-04-17 23:13 18.51321 73.28518 7907 ft 123 kts 327°
2026-04-17 23:13 18.52042 73.28007 7905 ft 123 kts 327°
2026-04-17 23:14 18.52744 73.27512 7905 ft 122 kts 327°
2026-04-17 23:14 18.53463 73.27003 7906 ft 122 kts 327°
2026-04-17 23:14 18.54173 73.26502 7900 ft 123 kts 328°
2026-04-17 23:14 18.54886 73.25997 7905 ft 123 kts 327°
2026-04-17 23:15 18.55599 73.25495 7901 ft 123 kts 326°
2026-04-17 23:15 18.56311 73.24991 7896 ft 123 kts 327°
2026-04-17 23:15 18.57017 73.24490 7899 ft 122 kts 327°
2026-04-17 23:15 18.57721 73.23992 7908 ft 122 kts 327°
2026-04-17 23:16 18.58430 73.23491 7910 ft 123 kts 328°
2026-04-17 23:16 18.59143 73.22987 7914 ft 124 kts 328°
2026-04-17 23:16 18.59863 73.22478 7908 ft 125 kts 327°
2026-04-17 23:16 18.60593 73.21963 7901 ft 125 kts 327°
2026-04-17 23:17 18.61316 73.21452 7898 ft 124 kts 328°
2026-04-17 23:17 18.62030 73.20946 7893 ft 124 kts 327°
2026-04-17 23:17 18.62749 73.20438 7891 ft 124 kts 327°
2026-04-17 23:17 18.63471 73.19930 7890 ft 123 kts 326°
2026-04-17 23:18 18.64189 73.19421 7885 ft 123 kts 327°
2026-04-17 23:18 18.64901 73.18916 7880 ft 122 kts 326°
2026-04-17 23:18 18.65603 73.18418 7885 ft 122 kts 327°
2026-04-17 23:18 18.66315 73.17914 7878 ft 123 kts 327°
2026-04-17 23:19 18.67030 73.17406 7879 ft 123 kts 327°
2026-04-17 23:19 18.67740 73.16904 7879 ft 123 kts 327°
2026-04-17 23:19 18.68456 73.16397 7879 ft 123 kts 326°
2026-04-17 23:19 18.69174 73.15889 7885 ft 124 kts 326°
2026-04-17 23:20 18.69892 73.15381 7878 ft 124 kts 327°
2026-04-17 23:20 18.70616 73.14867 7879 ft 124 kts 327°
2026-04-17 23:20 18.71330 73.14362 7882 ft 125 kts 326°
2026-04-17 23:20 18.72058 73.13847 7884 ft 125 kts 326°
2026-04-17 23:21 18.72787 73.13333 7881 ft 125 kts 325°
2026-04-17 23:21 18.73518 73.12815 7882 ft 125 kts 325°
2026-04-17 23:21 18.74241 73.12302 7877 ft 126 kts 325°
2026-04-17 23:21 18.74967 73.11786 7872 ft 125 kts 326°
2026-04-17 23:22 18.75695 73.11269 7876 ft 124 kts 326°
2026-04-17 23:22 18.76405 73.10766 7874 ft 123 kts 327°
2026-04-17 23:22 18.77122 73.10256 7881 ft 122 kts 326°
2026-04-17 23:22 18.77832 73.09753 7888 ft 123 kts 326°
2026-04-17 23:23 18.78547 73.09247 7879 ft 124 kts 326°
2026-04-17 23:23 18.79263 73.08739 7879 ft 124 kts 326°
2026-04-17 23:23 18.79991 73.08224 7879 ft 125 kts 326°
2026-04-17 23:23 18.80722 73.07706 7875 ft 126 kts 325°
2026-04-17 23:24 18.81449 73.07189 7874 ft 125 kts 325°
2026-04-17 23:24 18.82175 73.06673 7880 ft 125 kts 325°
2026-04-17 23:24 18.82903 73.06158 7881 ft 126 kts 325°
2026-04-17 23:24 18.83637 73.05638 7883 ft 126 kts 324°
2026-04-17 23:25 18.84371 73.05117 7884 ft 126 kts 324°
2026-04-17 23:25 18.85098 73.04601 7886 ft 126 kts 324°
2026-04-17 23:25 18.85831 73.04082 7885 ft 126 kts 323°
2026-04-17 23:25 18.86564 73.03559 7883 ft 126 kts 324°
2026-04-17 23:26 18.87287 73.03046 7882 ft 125 kts 324°
2026-04-17 23:26 18.88022 73.02523 7881 ft 126 kts 324°
2026-04-17 23:26 18.88746 73.02007 7878 ft 125 kts 325°
2026-04-17 23:26 18.89467 73.01495 7876 ft 125 kts 324°
2026-04-17 23:27 18.90197 73.00977 7876 ft 125 kts 325°
2026-04-17 23:27 18.90919 73.00462 7878 ft 125 kts 325°
2026-04-17 23:27 18.91646 72.99947 7869 ft 119 kts 326°
2026-04-17 23:27 18.92311 72.99483 7768 ft 113 kts 326°
2026-04-17 23:28 18.92959 72.99032 7658 ft 110 kts 324°
2026-04-17 23:28 18.93589 72.98589 7542 ft 107 kts 324°
2026-04-17 23:28 18.94202 72.98158 7393 ft 102 kts 324°
2026-04-17 23:28 18.94775 72.97758 7176 ft 96 kts 325°
2026-04-17 23:29 18.95318 72.97379 6957 ft 91 kts 325°
2026-04-17 23:29 18.95832 72.97018 6742 ft 87 kts 324°
2026-04-17 23:29 18.96337 72.96664 6492 ft 88 kts 324°
2026-04-17 23:29 18.96851 72.96300 6212 ft 90 kts 324°
2026-04-17 23:30 18.97363 72.95940 5932 ft 90 kts 325°
2026-04-17 23:30 18.97886 72.95568 5643 ft 91 kts 326°
2026-04-17 23:30 18.98405 72.95201 5363 ft 91 kts 327°
2026-04-17 23:30 18.98929 72.94829 5080 ft 91 kts 327°
2026-04-17 23:31 18.99456 72.94455 4794 ft 91 kts 327°
2026-04-17 23:31 18.99990 72.94076 4507 ft 92 kts 328°
2026-04-17 23:31 19.00513 72.93704 4229 ft 92 kts 329°
2026-04-17 23:31 19.01043 72.93328 3943 ft 92 kts 329°
2026-04-17 23:32 19.01568 72.92956 3661 ft 91 kts 330°
2026-04-17 23:32 19.02092 72.92583 3378 ft 91 kts 331°
2026-04-17 23:32 19.02618 72.92208 3088 ft 90 kts 333°
2026-04-17 23:32 19.03139 72.91840 2810 ft 91 kts 332°
2026-04-17 23:33 19.03667 72.91466 2551 ft 91 kts 332°
2026-04-17 23:33 19.04186 72.91097 2276 ft 91 kts 332°
2026-04-17 23:33 19.04707 72.90723 2111 ft 90 kts 330°
2026-04-17 23:33 19.05226 72.90349 2016 ft 88 kts 331°
2026-04-17 23:34 19.05701 72.89999 2011 ft 79 kts 330°
2026-04-17 23:34 19.06142 72.89675 2011 ft 73 kts 330°
2026-04-17 23:34 19.06560 72.89404 2006 ft 68 kts 330°
2026-04-17 23:34 19.06980 72.89081 1887 ft 82 kts 327°
2026-04-17 23:35 19.07452 72.88718 1777 ft 87 kts 323°
2026-04-17 23:35 19.07923 72.88222 1494 ft 102 kts 319°
2026-04-17 23:35 19.08353 72.87729 1386 ft 85 kts 319°
2026-04-17 23:35 19.08771 72.87299 1264 ft 84 kts 320°
2026-04-17 23:36 19.09171 72.86843 1206 ft 84 kts 311°
2026-04-17 23:36 19.09511 72.86361 1116 ft 73 kts 312°
2026-04-17 23:36 19.09747 72.85956 1007 ft 65 kts 304°
2026-04-17 23:36 19.09948 72.85505 884 ft 69 kts 289°
2026-04-17 23:37 19.10029 72.85017 707 ft 67 kts 279°
2026-04-17 23:37 19.10030 72.84518 480 ft 69 kts 268°
2026-04-17 23:37 19.09942 72.84023 242 ft 70 kts 261°
2026-04-17 23:37 19.09860 72.83551 54 ft 60 kts 263°
2026-04-17 23:38 19.09794 72.83162 13 ft 41 kts 259°
2026-04-17 23:38 19.09759 72.82973 16 ft 15 kts 346°
2026-04-17 23:38 19.09772 72.83044 14 ft 9 kts 79°
2026-04-17 23:38 19.09787 72.83124 13 ft 15 kts 74°
2026-04-17 23:39 19.09808 72.83250 12 ft 17 kts 83°
2026-04-17 23:39 19.09834 72.83368 10 ft 16 kts 72°
2026-04-17 23:39 19.09827 72.83364 10 ft 3 kts 259°
2026-04-17 23:39 19.09808 72.83238 12 ft 44 kts 260°
2026-04-17 23:40 19.09732 72.82824 139 ft 60 kts 252°
2026-04-17 23:40 19.09437 72.82540 278 ft 75 kts 162°
2026-04-17 23:40 19.08993 72.82894 420 ft 86 kts 141°
2026-04-17 23:40 19.08534 72.83327 617 ft 89 kts 136°
2026-04-17 23:41 19.08064 72.83793 767 ft 97 kts 126°
2026-04-17 23:41 19.07841 72.84468 867 ft 103 kts 98°
2026-04-17 23:41 19.07681 72.85236 901 ft 112 kts 98°
2026-04-17 23:41 19.07556 72.86036 1045 ft 108 kts 92°
2026-04-17 23:42 19.07624 72.86826 1066 ft 115 kts 74°
2026-04-17 23:42 19.07786 72.87675 716 ft 113 kts 79°
2026-04-17 23:42 19.07880 72.88387 685 ft 79 kts 68°
2026-04-17 23:42 19.08242 72.88678 631 ft 65 kts 355°
2026-04-17 23:43 19.08612 72.88456 444 ft 63 kts 310°
2026-04-17 23:43 19.08854 72.88065 261 ft 65 kts 286°
2026-04-17 23:43 19.08896 72.87608 85 ft 60 kts 265°
2026-04-17 23:43 19.08877 72.87165 24 ft 56 kts 268°
2026-04-17 23:44 19.08877 72.86745 95 ft 61 kts 272°
2026-04-17 23:44 19.08950 72.86302 219 ft 73 kts 294°
2026-04-17 23:44 19.09268 72.85857 345 ft 80 kts 303°
2026-04-17 23:44 19.09593 72.85355 282 ft 79 kts 306°
2026-04-17 23:45 19.09965 72.84412 364 ft 65 kts 272°
2026-04-17 23:45 19.09918 72.83923 191 ft 66 kts 264°
2026-04-17 23:45 19.09840 72.83453 36 ft 61 kts 261°
2026-04-17 23:46 19.09776 72.83079 14 ft 28 kts 253°
2026-04-17 23:46 19.09776 72.83007 15 ft 9 kts 96°
2026-04-17 23:46 19.09780 72.83062 14 ft 5 kts 85°
2026-04-17 23:46 19.09784 72.83102 13 ft 7 kts 84°
2026-04-17 23:47 19.09791 72.83179 12 ft 13 kts 84°
2026-04-17 23:47 19.09804 72.83285 11 ft 13 kts 79°
2026-04-17 23:47 19.09822 72.83375 10 ft 11 kts 77°
2026-04-17 23:47 19.09829 72.83402 10 ft 0 kts 82°
2026-04-17 23:48 19.09830 72.83415 10 ft 0 kts 37°
2026-04-17 23:48 19.09836 72.83415 10 ft 0 kts 333°
2026-04-17 23:49 19.09833 72.83406 10 ft 1 kts 253°
2026-04-17 23:49 19.09832 72.83394 10 ft 1 kts 254°
2026-04-17 23:49 19.09831 72.83392 10 ft 0 kts 257°